Overview Statistics Trail Chart Weather Telemetry Raw packets
 

This is the latest recevied weather packets stored in our database for station/object OE5MMP-13. If no packets are shown the sender has not sent any weather packets the latest 10 day(s).

<< 2 3 4 5 6 7 8 >>
Time Temp. Humidity Pressure Rain* Wind** Luminosity Snow
1788621194 20.56° C 64% 1023.1 hPa 0 mm - 333 W/m² -
1788620594 20.56° C 65% 1023 hPa 0 mm - 360 W/m² -
1788619994 20° C 66% 1022.9 hPa 0 mm - 387 W/m² -
1788619394 20° C 65% 1023 hPa 0 mm - 409 W/m² -
1788618794 20° C 65% 1023 hPa 0 mm - 436 W/m² -
1788618194 20° C 65% 1023.2 hPa 0 mm - 471 W/m² -
1788617594 20° C 66% 1023.1 hPa 0 mm - 487 W/m² -
1788616994 19.44° C 66% 1023.1 hPa 0 mm - 515 W/m² -
1788616395 19.44° C 68% 1023.3 hPa 0 mm - 564 W/m² -
1788615794 19.44° C 66% 1023.3 hPa 0 mm - 352 W/m² -
1788615194 19.44° C 67% 1023.2 hPa 0 mm - 236 W/m² -
1788614594 20° C 65% 1023.2 hPa 0 mm - 345 W/m² -
1788613994 20° C 63% 1022.9 hPa 0 mm - 307 W/m² -
1788613394 20° C 64% 1023 hPa 0 mm - 751 W/m² -
1788612794 20° C 64% 1023.1 hPa 0 mm - 570 W/m² -
1788612194 19.44° C 64% 1023.1 hPa 0 mm - 752 W/m² -
1788611593 20° C 65% 1023.4 hPa 0 mm - 561 W/m² -
1788610993 19.44° C 67% 1023.2 hPa 0 mm - 779 W/m² -
1788610394 19.44° C 68% 1023.4 hPa 0 mm - 764 W/m² -
1788609793 18.89° C 68% 1023.2 hPa 0 mm - 797 W/m² -
1788609193 18.33° C 71% 1023.3 hPa 0 mm - 378 W/m² -
1788608594 18.33° C 71% 1023.3 hPa 0 mm - 674 W/m² -
1788607993 18.33° C 72% 1023.4 hPa 0 mm - 397 W/m² -
1788607393 18.33° C 70% 1023.4 hPa 0 mm - 323 W/m² -
1788606793 18.33° C 72% 1023.3 hPa 0 mm - 247 W/m² -

* Rain latest hour (hover to see other rain measurements)
** Current wind speed in m/s (hover to see current wind gust speed)